Location: DARK SKY Beskydy - Park tmavé oblohy, www.darkskybeskydy.cz
(49.4926°N, 18.5016°E)
Time: 03:13:38
(UTC+01:00)

N. Korean satellite - Pass Details

Date: 14 December 2022
Orbit: 407 x 442 km, 97.3° (Epoch: 05 February)

Event Time Altitude Azimuth Distance (km) Brightness Sun altitude
Rises 04:08:59 0° 29° (NNE) 2,478 10.5 -32.1°
Maximum altitude 04:13:46 15° 90° (E) 1,309 9.5 -31.3°
Drops below altitude 10° 04:15:44 10° 127° (SE) 1,558 9.7 -31.0°
Sets 04:18:25 0° 152° (SSE) 2,406 10.5 -30.6°
